Location: ??
(35.1714°N, 128.2806°E)
Time: 15:26:49
(UTC+00:00)

Geosat - Pass Details

Date: 29 October 2020
Orbit: 763 x 766 km, 108.0° (Epoch: 01 December)

Event Time Altitude Azimuth Distance (km) Brightness Sun altitude
Rises 20:40:15 0° 162° (SSE) 3,209 7.6 -14.0°
Reaches altitude 10° 20:42:32 10° 165° (SSE) 2,287 6.8 -13.6°
Maximum altitude 20:47:28 65° 247° (WSW) 839 4.0 -12.6°
Drops below altitude 10° 20:52:27 10° 329° (NNW) 2,303 6.1 -11.6°
Sets 20:54:46 0° 332° (NNW) 3,233 6.9 -11.1°
